Location: Alsip
(41.6689°N, 87.7387°W)
Time: 01:39:58
(UTC+00:00)

Abrixas rocket - Visible Passes

Search period start: 24 October 2020 00:00
Search period end: 03 November 2020 00:00
Orbit: 328 x 336 km, 48.4° (Epoch: 23 October)

Date Brightness Start Highest point End Pass type
(mag) Time Alt. Az. Time Alt. Az. Time Alt. Az.
24 Oct 3.7 11:05:25 16° NNW 11:06:44 21° N 11:09:02 10° ENE visible
25 Oct 3.3 11:24:05 12° NW 11:26:22 29° NNE 11:28:56 10° E visible
26 Oct 4.6 10:11:33 16° NE 10:11:33 16° NE 10:12:34 10° ENE visible
26 Oct 2.3 11:43:02 10° NW 11:45:51 55° NNE 11:48:38 10° ESE visible
27 Oct 3.6 10:30:09 27° NNE 10:30:09 27° NNE 10:32:21 10° ENE visible
28 Oct 2.3 10:48:45 44° N 10:49:11 50° NNE 10:51:57 10° ESE visible
29 Oct 1.8 11:07:22 35° W 11:08:21 64° SSW 11:11:08 10° SE visible
30 Oct 5.4 09:54:50 11° E 09:54:50 11° E 09:55:01 10° E visible
30 Oct 3.3 11:26:00 17° WSW 11:27:16 23° SW 11:29:34 10° SSE visible
31 Oct 4.7 10:13:30 15° SE 10:13:30 15° SE 10:14:08 10° SE visible
01 Nov 4.6 10:32:13 12° SSE 10:32:13 12° SSE 10:32:34 10° SSE visible
